Volver al catálogo

YUNYAO-1 57

ActivoMeteoSSO
NORAD 63293·PAYLOAD·🇨🇳 China
Este nombre de satélite aún no ha sido confirmado por fuentes oficiales.

Lanzado Mar 17, 2025 desde Jiuquan Satellite Launch Center

Loading…

Próximos Pases (próximas 24 horas)

TLE

ActualizadoSource: Space-Track

Época: Sep 14, 2026, 19:59 UTC

1 63293U 25055C   26257.83293796  .00005669  00000-0  33512-3 0  9992
2 63293  97.6633  38.5667 0041659 191.6037 168.4237 15.11145500 82606

Sigue YUNYAO-1 57 en tiempo real con AllMySat

Download on the App Store